Regional Weather Roundup
Issued by NWS

Home | Current Version | Previous Version | Text Only | Print | Product List | Glossary On
Versions: 1 2 3 4 5 6 7 8 9 10 11 12 13 14 15 16 17 18 19 20 21 22 23 24 25 26 27 28 29 30 31 32 33 34 35 36 37 38 39 40 41 42 43 44 45 46 47 48 49 50
000
ASUS43 KTOP 201308
RWRKS

WEATHER ROUNDUP FOR KANSAS
NATIONAL WEATHER SERVICE GOODLAND KS
700 AM CST THU NOV 20 2014

NOTE:  "FAIR" INDICATES FEW OR NO CLOUDS BELOW 12,000 FEET WITH NO
SIGNIFICANT WEATHER AND/OR OBSTRUCTIONS TO VISIBILITY.

KSZ001>006-013>018-027>032-041>047-201400-
NORTHWEST KANSAS

CITY           SKY/WX    TMP DP  RH WIND       PRES   REMARKS
GOODLAND       PTCLDY    20  15  81 W7        30.00S
HAYS           PTCLDY    18   9  68 E7        30.11R
HILL CITY      PTCLDY    15  11  83 E7        30.10R
RUSSELL        PTCLDY    18  13  80 E6        30.12R
$$

KSZ061>065-074>080-084>089-201400-
SOUTHWEST KANSAS

CITY           SKY/WX    TMP DP  RH WIND       PRES   REMARKS
DODGE CITY     CLEAR     24  20  84 S8        30.06S
ELKHART          N/A     29  20  69 S6          N/A
GARDEN CITY    PTCLDY    24  21  88 SE7       30.04S
GREAT BEND     PTCLDY    19  12  73 CALM      30.13S
LIBERAL        PTCLDY    27  18  69 SE3       30.05R
PRATT          PTCLDY    27  21  80 SE5       30.11S
$$

KSZ066>073-081>083-090>101-201400-
SOUTHEAST KANSAS

CITY           SKY/WX    TMP DP  RH WIND       PRES   REMARKS
CHANUTE        CLEAR     24  19  81 E5        30.19R
COFFEYVILLE    CLEAR     22  20  92 NE6       30.20R
HUTCHINSON     CLEAR     20  13  74 CALM      30.16R
MEDICINE LODGE   N/A     26  21  81 E5        30.12S
NEWTON         CLEAR     23  12  63 SE6       30.16R
PARSONS        CLEAR     21  19  92 CALM      30.20R
WICHITA INTL   PTCLDY    27  17  66 CALM      30.16R
WICHITA JABRA  CLEAR     20  15  81 NE5       30.16R
WICHITA MCCONL CLEAR     22  17  81 NE5       30.16R
WINFIELD       CLEAR     29  19  66 SE6       30.16R
$$

KSZ007>012-019>026-033>040-048>060-102>105-201400-
NORTHEAST KANSAS

CITY           SKY/WX    TMP DP  RH WIND       PRES   REMARKS
CONCORDIA      CLEAR     16  13  88 SE7       30.16S
EMPORIA        CLEAR     18  12  77 E6        30.19R
LAWRENCE       FAIR      12   9  87 NW5       30.23R
MANHATTAN      CLEAR     16  13  88 CALM      30.20S
MARYSVILLE     PTCLDY    12  10  92 CALM      30.19R
OLATHE IND     CLEAR     17  13  84 CALM      30.21R
OLATHE EXE     CLEAR     19  15  84 CALM      30.20R
SALINA         CLEAR     22  13  68 E6        30.18R
TOPEKA BILLARD CLEAR     17  13  84 CALM      30.23R
TOPEKA FORBES  CLEAR     16  10  77 CALM      30.20R
$$


USA.gov is the U.S. government's official web portal to all federal, state and local government web resources and services.